Погода в Ларьяке

Погода в Ларьяке : погода сейчас, прогноз погоды и архив. Всё, что Вы хотите узнать о погоде в Ларьяке!

Хотите узнать прогноз погоды в Ларьяке? Тогда Вам сюда: Погода в Ларьяке

Поиск расширенной информации на нашем сайте:

Другие новости

Новости СМИ2

Главная страница сайта

Новости сайта

03.07.2017

Напоминаем, что на нашем специализированном сайте Метеоцентр.Азия вы можете получить высокодетализированные автоматические прогнозы погоды по пунктам России, СНГ и мира в авиационном формате (включающие направление и скорость ветра, видимость, явления погоды, количество и форму облачности, нижнюю и верхнюю границу облачности).


Погода в Ларьяке - сегодня

Время (UTC), дата Ветер
(°,м/с) 
Видим.   Явления Облачность Т
(°С)
Тd
(°С)
f(%) Тe
(°С)
Pmin
(гПа)
dP
(гПа)
Po
(мм)
O2
(г/м3)
Тmin Tmax R s Состояние
почвы
09 18.02.18 230 (ЮЗ) 20000 м  {снег}  10/0 средняя, верхняя 
[Ac As|Ci fib]
-10.4 -14.2 74 -10  1024.5  -0.6  763  321           
12 18.02.18 210 (ЮЗ) 4000 м  слаб. снег  10/0 средняя 
[As op]
-10.7 -13.7 79 -13  1024.2  -0.3  763  321           
15 18.02.18 190 (Ю) 4000 м  слаб. снег  10/0 средняя 
[As op]
-10.5 -12.8 83 -12  1023.8  -0.5  762  321    -9.6  0.4     
18 18.02.18 210 (ЮЗ) 2000 м  слаб. снег  10/0 средняя 
[As op]
-10.3 -12.5 84 -12  1022.6  -1.1  761  320           
21 18.02.18 210 (ЮЗ) 4000 м  слаб. снег  10/0 средняя 
[As op]
-9.9 -12 85 -12  1021.7  -0.9  761  319           
00 19.02.18 230 (ЮЗ) 4000 м  слаб. снег  10/0 средняя, верхняя 
[As trans|Ci fib]
-10 -12 85 -12  1021.8  0.1  761  319           
03 19.02.18 250 (З) 10 км  слаб. снег  10/0 средняя 
[As trans]
-10 -12 85 -14  1022.2  0.4  761  319  -10.5    0.7  56  равномерный
сухой снег
100% 
09 19.02.18 230 (ЮЗ) 10 км  слаб. снег  10/3 300 м средняя, верхняя 
[Frnb|Ac As|Ci fib]
-7.7 -10.9 78 -9  1022.6  0.2  761  317           
12 19.02.18 240 (ЮЗ) 4000 м  слаб. снег  10/0 средняя, верхняя 
[As trans|Ci fib]
-8.1 -9.7 88 -8  1023.3  0.7  762  317           
15 19.02.18 240 (ЮЗ) 10 км  слаб. снег  8/0 средняя, верхняя 
[As trans|Ci fib]
-11.7 -13.1 89 -14  1024.1  0.6  762  322    -7.4  0.5     
18 19.02.18 260 (З) 4000 м  слаб. снег  10/0 средняя 
[As op]
-10.6 -12.4 87 -14  1024.6  0.5  763  321           
21 19.02.18 270 (З) 4000 м  слаб. снег  10/4 300 м средняя 
[Frnb|As op]
-11 -13.2 84 -14  1025.2  0.7  763  322           
00 20.02.18 240 (ЮЗ) 10 км  слаб. снег  10/0 средняя, верхняя 
[As trans|Ci fib]
-13.3 -15.3 85 -13  1025.7  0.4  764  325           
03 20.02.18 260 (З) 10 км  слаб. снег  10/0 средняя, верхняя 
[As trans|Ci fib]
-15.8 -17.8 85 -18  1026.5  0.7  764  328  -16    0.3  55  равномерный
сухой снег
100% 
09 20.02.18 тихо ()   20000 м    10/0 верхняя 
[Cs]
-11.8 -16 71 -12  1027  0.3  765  323           
12 20.02.18 070 (В) 4000 м  слаб. снег  10/0 средняя, верхняя 
[As op|Ci fib]
-14.2 -16.6 82 -14  1026.5  -0.5  764  326           
15 20.02.18 060 (СВ) 4000 м  слаб. снег  10/0 средняя 
[As trans]
-14.6 -16.7 84 -15  1026.1  -0.5  764  327    -11.5  0.3     
18 20.02.18 050 (СВ) 10 км  слаб. снег  10/0 средняя, верхняя 
[As trans|Ci fib]
-17.7 -19.7 84 -18  1025.4  -0.7  763  330           
03 21.02.18 050 (СВ) 10 км  слаб. снег [диам. изморози 1 мм]  8/0 средняя, верхняя 
[As trans|Ci fib]
-20.8 -23.6 78 -21  1025.9  -0.1  764  335  -21.1    0.5  58  равномерный
сухой снег
100% 
06 21.02.18 060 (СВ) 20000 м  {снег}  8/0 средняя, верхняя 
[As trans|Ci fib]
-16.3 -21 67 -16  1026  0.2  764  329           
09 21.02.18 040 (СВ) 10 км  слаб. снег  5/0 средняя, верхняя 
[As trans|Ci fib]
-15 -19.4 69 -17  1025.5  -0.5  763  327           
12 21.02.18 040 (СВ) 20000 м  {снег}  10/0 средняя, верхняя 
[As trans|Ci fib]
-17.4 -20.6 76 -20  1025.7  0.2  764  330           
18 21.02.18 070 (В) 20000 м    10/0 средняя, верхняя 
[As trans|Ci fib]
-17.8 -20.1 82 -20  1023.5  -1.3  762  330           
21 21.02.18 070 (В) 20000 м    10/0 средняя, верхняя 
[As trans|Ci fib]
-17.7 -20.2 81 -20  1022.5  -1  761  330           
00 22.02.18 070 (В) 20000 м    10/0 средняя, верхняя 
[As trans|Ci fib]
-17.8 -20.4 80 -20  1021.1  -1.4  760  329           
Время (UTC), дата Ветер
(°,м/с) 
Видим.   Явления Облачность Т
(°С)
Тd
(°С)
f(%) Тe
(°С)
Pmin
(гПа)
dP
(гПа)
Po
(мм)
O2
(г/м3)
Тmin Tmax R s Состояние
почвы

Для получения пояснительной информации подведите курсор к названию столбца.

ПОГОДА в Ларьяке - архив

Всё, что Вы хотите узнать о погоде в Ларьяке - удобно и подробно!

Выберите нужную дату (начиная с 1 января 2015* года) и нажмите кнопку "Найти".
Будут отображены архивные сводки погоды по пункту Ларьяк, начиная с указанной даты.


Отображать данные в формате CSV (для использования в таблицах Excel)


Внимание! Наш архив погоды предназначен исключительно для личного некоммерческого использования в познавательных целях. Если Вам необходимы официальные справки о состоянии погоды (для производственных, юридических, коммерческих и т.п. целей), обращайтесь в органы Росгидромета.

*Примечание: данная дата относится к архиву по метеостанциям СССР (Россия, СНГ, Балтия).
Архив по метеостанциям Зарубежной Европы и Азии (кроме Китая) хранится 10 дней, по другим регионам земного шара (Китай, Африка, Америка, Австралия, Океания) - 1 день.

Ларьяк - район местоположения метеостанции


Название, широта, долгота, высота метеостанции:
Ларьяк 61.1°ш. 80.3°д. 55 м над ур. моря [Российская Федерация]

Дополнительная информация

В oтличие oт бoльшинства пoгoдных сайтoв мы публикуем пoдрoбную метеoинфoрмацию в детальнoм прoфессиoнальнoм фoрмате.

Характеристики температуры и влажнoсти вoздуха измеряются на высoте 2 м в тени вдали oт зданий и деревьев.
Скoрoсть ветра измеряется на высoте 10 м (на урoвне рoста челoвека скoрoсть ветра ниже в 1.5-2 раза). Если метеoстанция нахoдится в гoрoде или в лесу, тo скoрoсть ветра занижена на 2-4 м/с пo сравнению с oткрытым местoм. Скoрoсть ветра над акватoриями крупных рек и oзёр, а также на вершинах хoлмoв на 2-5 м/с выше, чем в oбычных услoвиях.
Атмoсфернoе давление в разных тoчках местнoсти мoжет значительнo oтличаться oт давления на метеoстанции, в зависимoсти oт услoвий рельефа (при пoдъёме на 10 м давление пoнижается примернo на 1 мм рт.ст.).